Flag for Germany Weather past 2 weeks in Pirna, Saxony, Germany

Now
71 °F

Scattered clouds.


Feels Like: 77 °F
Forecast: 52 / 80 °F
Wind: 6 mph from Southwest

Location: Dresden-Klotzsche

Current Time: May 4, 2015 at 7:08:55 PM

Latest Report: May 4, 2015 at 6:00 PM


Visibility: 37 mi

Pressure: 29.82 "Hg

Humidity: 50%

Dew point: 52 °F

Location of PirnaLocation

Historic Weather in Pirna — Graph

°F

Pirna temperature yesterday

Maximum temperature yesterday: 65 °F (at 3:00 PM)
Minimum temperature yesterday: 42 °F (at 3:00 AM)
Average temperature yesterday: 55 °F

Past Weeks' High & Low Weather Summary

 TemperatureHumidityPressure
High71 °F (May 4, 6:00 PM)100% (Apr 27, 8:00 PM)30.34 "Hg (Apr 27, 8:00 PM)
Low35 °F (Apr 23, 6:00 AM)24% (Apr 21, 4:00 PM)29.50 "Hg (Apr 27, 4:00 PM)
Average52 °F66%29.96 "Hg
* Reported Apr 19 6:00 PM — May 4 6:00 PM, Pirna, Weather by CustomWeather, © 2015

Note: Actual official high and low records may vary slightly from our data, if they occured in-between our weather recording intervals... More about our weather records

Advertising

Pirna weather history for previous 24 hours

 ConditionsComfort  
Time TempWeatherWind HumidityBarometerVisibility
6:00 PM
Mon, May 4
71 °FScattered clouds.6 mph50%29.82 "Hg37 mi
4:00 PM70 °FScattered clouds.2 mph54%29.83 "Hg37 mi
3:00 PM70 °FScattered clouds.3 mph55%29.84 "Hg37 mi
2:00 PM68 °FScattered clouds.3 mph58%29.83 "Hg37 mi
1:00 PM66 °FPartly sunny.3 mph64%29.84 "Hg37 mi
12:00 PM65 °FPartly sunny.5 mph65%29.83 "Hg34 mi
10:00 AM63 °FOvercast.5 mph76%29.82 "Hg31 mi
9:00 AM61 °FOvercast.5 mph83%29.81 "Hg25 mi
8:00 AM60 °FPartly sunny.3 mph87%29.80 "Hg25 mi
7:00 AM57 °FOvercast.3 mph92%29.78 "Hg25 mi
6:00 AM55 °FOvercast.3 mph94%29.76 "Hg22 mi
4:00 AM55 °FOvercast.6 mph93%29.72 "Hg19 mi
3:00 AM54 °FOvercast.7 mph94%29.72 "Hg19 mi
2:00 AM54 °FOvercast.8 mph93%29.72 "Hg19 mi
1:00 AM54 °FLight rain. Overcast.8 mph94%29.73 "Hg9 mi
12:00 AM54 °FLight rain. Low clouds.8 mph95%29.72 "Hg6 mi
10:00 PM
Sun, May 3
56 °FLight rain. Overcast.7 mph94%29.75 "Hg8 mi
9:00 PM59 °FLight rain. Overcast.9 mph74%29.73 "Hg16 mi
8:00 PM61 °FOvercast.7 mph64%29.73 "Hg25 mi
7:00 PM62 °FOvercast.7 mph59%29.74 "Hg25 mi
Weather by CustomWeather, © 2015

See weather overviewHow to use our weather pages